Location: Atlanta
(33.7490°N, 84.3880°W)
Time: 09:35:27
(UTC-04:00)

Daily predictions for brighter satellites

Satellite Brightness Start Highest point End
(mag) Time Altitude Azimuth Time Altitude Azimuth Time Altitude Azimuth
OAO 2 Rocket 3.4 20:58:39 10° W 21:03:34 76° N 21:08:32 10° E
Aureole 1 Rocket 3.0 21:02:47 10° S 21:05:56 33° ESE 21:08:44 10° NE
Cosmos 1441 Rocket 4.4 21:06:12 10° SE 21:09:09 22° E 21:12:06 10° NE
Meteor 1-19 Rocket 4.5 21:05:19 10° S 21:10:56 53° E 21:16:29 10° NNE
Cosmos 1025 Rocket 4.4 21:12:38 10° SE 21:15:45 20° E 21:18:53 10° NE
Cosmos 2112 Rocket 4.0 21:11:14 10° S 21:16:22 61° ESE 21:21:29 10° NNE
USA 186 1.7 21:14:16 10° SSE 21:17:26 63° ENE 21:20:32 10° N
Cosmos 1544 Rocket 4.0 21:17:49 10° NNW 21:22:06 65° W 21:26:22 10° S
Spot 2 Rocket 3.6 21:18:44 10° S 21:23:46 79° WSW 21:28:50 10° NNW
Iridium 4 Rocket 4.2 21:19:49 10° N 21:25:02 63° W 21:30:38 10° SSW
Cosmos 2082 Rocket 3.8 21:25:48 11° SE 21:28:21 15° E 21:31:20 10° ENE
COSMOS 2406 3.7 21:22:47 10° SSW 21:28:30 68° WNW 21:34:11 10° NNE
SL-27 R/B 2.4 21:26:02 10° S 21:29:40 78° ESE 21:33:19 10° NNE
ASTRO E2 3.4 21:27:05 10° W 21:30:50 39° SSW 21:33:48 15° SE
Cosmos 1437 4.3 21:28:46 10° SSW 21:31:47 38° W 21:34:50 10° N
Cosmos 2074 Rocket 4.1 21:26:17 10° N 21:32:26 58° E 21:38:36 10° SSE
Resurs 1-3 4.2 21:28:56 10° S 21:33:14 58° W 21:37:34 10° NNW
Cosmos 2184 Rocket 4.1 21:30:39 10° N 21:36:55 61° E 21:43:05 10° SSE
Cosmos 1743 2.7 21:34:22 10° N 21:38:17 83° E 21:42:10 10° S
Cosmos 1680 Rocket 3.9 21:33:23 10° SSW 21:38:34 67° WNW 21:43:46 10° N
SAR-Lupe-4 3.9 21:36:19 14° SSE 21:39:09 48° ENE 21:42:38 10° N
Cosmos 192 4.3 21:34:26 10° SSW 21:39:19 86° ESE 21:44:14 10° NNE
USA 81 4.4 21:34:05 10° S 21:39:19 70° W 21:44:36 10° N
Spot 1 4.2 21:35:59 11° SSE 21:40:21 62° ENE 21:44:36 10° N
YAOGAN 6 3.4 21:43:15 19° SE 21:45:05 32° ENE 21:48:15 10° N
Envisat 3.0 21:40:59 10° SSE 21:46:03 84° ENE 21:51:10 10° N
Cosmos 1455 Rocket 4.4 21:42:48 10° NNW 21:46:50 38° W 21:50:50 10° SSW
Resurs 01 Rocket 3.3 21:45:34 10° SSW 21:49:31 32° W 21:53:29 10° NW
SAR-Lupe-1 4.0 21:53:08 21° SSE 21:55:26 69° ENE 21:59:00 10° N
NOSS 8 (F) 4.5 21:53:13 10° SSW 21:56:50 56° ESE 22:00:15 10° NE
Cosmos 1666 2.6 21:54:30 10° N 21:58:16 84° W 22:01:05 17° S
Nadezhda 1 Rocket 4.0 21:53:00 10° S 21:59:20 88° E 22:05:47 10° N
Tiangong 2 3.8 21:57:27 10° NW 21:59:45 18° N 22:02:02 10° NE
Meteor 2-9 Rocket 4.2 21:55:49 10° N 22:01:22 73° E 22:05:45 17° SSE
Cosmos 1833 Rocket 3.5 22:01:02 22° SE 22:03:17 29° ESE 22:08:02 10° NE
Cosmos 1939 Rocket 3.0 22:03:01 16° S 22:05:59 66° W 22:09:50 10° NNW
Cosmos 405 2.8 22:06:00 10° N 22:09:33 80° E 22:11:00 33° SSE
COSMOS 2487 2.9 22:10:54 38° ESE 22:11:08 38° ESE 22:14:29 10° NNE
Helios 1A 3.9 22:08:35 12° S 22:12:21 46° W 22:16:25 10° NNW
Cosmos 1437 Rocket 3.0 22:12:35 10° N 22:16:21 50° E 22:17:17 40° SE
Meteor 2-4 Rocket 4.5 22:10:56 10° SSW 22:16:25 54° W 22:22:07 10° N
SPOT 5 3.5 22:18:47 29° E 22:19:40 31° ENE 22:23:31 10° N
NOSS 8 (H) 4.2 22:17:23 18° SSW 22:19:50 67° ESE 22:23:13 10° NE
Cosmos 2154 Rocket 4.0 22:14:51 10° N 22:21:13 74° E 22:25:08 25° SSE
Cosmos 2228 4.2 22:18:54 10° NNE 22:22:28 25° ENE 22:22:37 25° E
ERS-1 Rocket 2.9 22:21:27 30° SSE 22:23:59 80° ENE 22:29:01 10° N
Cosmos 921 Rocket 3.8 22:19:52 10° N 22:24:00 36° ENE 22:24:47 33° E
Cosmos 1515 3.5 22:25:11 48° SSE 22:26:05 70° E 22:29:53 10° NNE
CZ-4B DEB 4.4 22:24:50 19° SW 22:26:14 27° W 22:28:51 10° NW
Cosmos 1371 Rocket 3.9 22:21:14 10° NNW 22:26:33 85° ENE 22:28:55 34° SSE
Hubble Space Telescope 2.6 22:24:15 10° SW 22:25:49 18° SSW 22:25:49 18° SSW
CENTAUR R/B 4.1 22:24:31 10° NW 22:32:02 42° WSW 22:38:41 14° S
Cosmos 1892 Rocket 3.4 22:32:13 36° S 22:33:59 83° E 22:38:25 10° N
SL-24 DEB 4.4 22:34:54 45° ESE 22:35:44 52° E 22:40:14 10° N
Cosmos 1980 Rocket 4.1 22:36:25 10° NNE 22:39:37 15° NE 22:41:05 14° ENE
ARGOS 3.2 22:39:41 42° SE 22:41:23 64° ENE 22:46:45 10° N
SL-08 RB Rocket 3.8 22:44:22 50° E 22:44:47 52° ENE 22:49:07 10° N
OAO 2 Rocket 3.1 22:43:29 10° W 22:48:26 82° SSW 22:49:22 59° ESE
Cosmos 1606 Rocket 3.7 22:45:13 10° NNW 22:49:30 67° W 22:50:29 49° SSW
NOAA 11 4.3 22:50:42 37° S 22:52:51 70° WSW 22:58:17 10° NNW
CZ-3A R/B 3.6 22:50:26 10° WSW 22:53:17 17° WNW 22:54:51 10° N
Timation 2 Rocket 4.1 22:52:16 44° SSE 22:53:47 54° ESE 22:59:50 10° NNE
Cosmos 2341 Rocket 4.1 22:49:15 10° N 22:55:38 80° W 22:58:25 36° S
Cosmos 1726 Rocket 3.7 22:54:33 10° NNW 22:58:49 63° W 22:59:25 56° SW
MetOp-B 4.3 22:57:15 41° SSW 22:59:02 67° WSW 23:04:24 10° NNW
Cosmos 2218 Rocket 4.0 22:59:22 10° N 23:05:28 60° E 23:06:29 53° ESE
H-2A R/B 1.8 23:09:14 72° ESE 23:09:28 74° ENE 23:14:29 10° N
Cosmos 2082 Rocket 2.6 23:07:29 17° SW 23:11:50 60° WNW 23:17:26 10° NNE
Cosmos 2058 Rocket 3.5 23:11:49 10° NNW 23:16:09 56° W 23:16:19 55° WSW
Cosmos 2278 3.7 23:11:41 10° NNW 23:17:22 70° WSW 23:18:12 60° SSW
Meteor 1-4 Rocket 4.2 23:21:32 10° N 23:23:30 31° N 23:23:30 31° N
Meteor 1-22 Rocket 4.1 23:21:51 10° N 23:26:59 69° ENE 23:26:59 69° ENE
Nadezhda 3 Rocket 4.4 23:27:58 46° E 23:27:58 46° E 23:33:43 10° NNE
H-2A R/B 2.9 23:32:00 45° NNE 23:32:00 45° NNE 23:35:26 10° N
Landsat 7 4.0 23:35:41 67° NW 23:35:41 67° NW 23:39:52 10° NNW
Cosmos 1697 Rocket 2.6 23:29:46 10° NNW 23:35:16 79° NE 23:35:16 79° NE
Cosmos 1269 Rocket 4.0 23:36:00 79° NNW 23:36:00 79° NNW 23:41:02 10° NNE
Tiangong 2 4.2 23:35:01 10° NW 23:36:17 16° NNW 23:36:17 16° NNW
SL-19 R/B 4.1 23:31:59 10° NNE 23:36:44 71° NE 23:36:44 71° NE
Cosmos 2369 4.3 23:32:04 10° NW 23:37:30 46° WSW 23:38:00 45° WSW
Cosmos 1656 3.7 23:32:52 10° NNW 23:38:15 66° WSW 23:38:15 66° WSW
DMSP B5D2-2 4.3 23:33:37 10° N 23:38:51 65° WNW 23:39:16 63° WSW
Meteor 2-21 4.4 23:36:21 10° N 23:42:23 74° W 23:42:50 70° SW
SL-16 R/B 4.1 23:39:31 10° NNE 23:43:18 18° ENE 23:43:34 18° ENE
Cosmos 864 Rocket 4.4 23:38:30 10° N 23:44:46 76° W 23:45:17 71° SW
Cosmos 1048 Rocket 4.2 23:45:30 63° WNW 23:45:30 63° WNW 23:50:26 10° N
Cosmos 1420 Rocket 4.2 23:40:37 10° NNW 23:45:12 68° NNW 23:45:12 68° NNW
Meteor 2-21 Rocket 4.3 23:40:48 10° N 23:46:53 85° W 23:46:58 84° WSW
Cosmos 1833 Rocket 4.2 23:42:35 12° WSW 23:47:02 32° WNW 23:52:02 10° N
Terra 2.4 23:51:10 55° NNW 23:51:10 55° NNW 23:54:53 10° NNW
